Port Angeles, WA
on Thursday, December 27, 2012

Thursday
Previous Day Next Day
Daily Summary
 ActualAverageRecord
Temperature
Mean Temperature °F °F  
Max Temperature 46°F 44°F 59°F (1980)
Min Temperature 37°F 33°F 19°F (1971)
Degree Days
Heating Degree Days 24    
Moisture
Dew Point 38°F   
Average Humidity 88    
Maximum Humidity 97    
Minimum Humidity 73    
Precipitation
Precipitation 0.00 in in in ()
Wind
Wind Speed 4 mph   
Max Wind Speed 7 mph   
Max Gust Speed mph   
Visibility 10 miles   
Events Rain   
Averages and records for this station are not official NWS values.
Key: T is trace of precipitation, MM is missing value
Source: NWS Daily Summary
Seasonal Weather Averages
Time(PST)TemperatureDew PointHumidity Pressure Visibility Wind DirectionWind SpeedGust SpeedPrecipitationEvents Conditions
12:24 AM 41.0°F 37.9°F 89% 29.94 in 9.0 miles WSW 5.8 mph - 0.00 in Rain Light Rain
12:53 AM 41.0°F 39.0°F 93% 29.96 in 4.0 miles WSW 4.6 mph - 0.00 in Rain Light Rain
1:14 AM 41.0°F 39.0°F 93% 29.96 in 9.0 miles WSW 4.6 mph - 0.00 in Rain Light Rain
1:53 AM 39.9°F 37.9°F 93% 29.98 in 10.0 miles SW 5.8 mph - 0.00 in   Overcast
2:07 AM 39.9°F 37.9°F 93% 29.98 in 10.0 miles SW 4.6 mph - N/A   Overcast
2:53 AM 39.9°F 37.9°F 93% 29.99 in 10.0 miles Calm Calm - 0.00 in Rain Light Rain
3:53 AM 39.0°F 37.0°F 93% 30.01 in 10.0 miles SW 5.8 mph - 0.00 in   Overcast
4:53 AM 37.9°F 37.0°F 97% 30.01 in 10.0 miles Calm Calm - N/A   Overcast
5:53 AM 39.0°F 37.0°F 93% 30.02 in 10.0 miles SSW 3.5 mph - N/A   Overcast
6:04 AM 39.0°F 37.0°F 93% 30.02 in 10.0 miles SW 4.6 mph - N/A   Overcast
6:15 AM 37.9°F 37.0°F 97% 30.02 in 10.0 miles SW 4.6 mph - N/A   Overcast
6:53 AM 37.9°F 37.0°F 97% 30.03 in 10.0 miles Calm Calm - 0.00 in   Overcast
7:53 AM 39.0°F 37.0°F 93% 30.05 in 10.0 miles WSW 3.5 mph - N/A   Overcast
8:53 AM 41.0°F 37.9°F 89% 30.07 in 10.0 miles Calm Calm - N/A   Overcast
9:53 AM 43.0°F 37.9°F 82% 30.09 in 10.0 miles WSW 3.5 mph - N/A   Clear
10:53 AM 43.0°F 37.9°F 82% 30.10 in 10.0 miles WSW 3.5 mph - N/A   Mostly Cloudy
11:53 AM 45.0°F 37.9°F 76% 30.12 in 10.0 miles WSW 4.6 mph - N/A   Overcast
12:53 PM 46.0°F 37.9°F 73% 30.11 in 10.0 miles Variable 3.5 mph - N/A   Clear
1:53 PM 45.0°F 37.9°F 76% 30.11 in 10.0 miles Calm Calm - N/A   Scattered Clouds
2:03 PM 45.0°F 37.9°F 76% 30.11 in 10.0 miles Calm Calm - N/A   Mostly Cloudy
2:53 PM 46.0°F 37.9°F 73% 30.12 in 10.0 miles Calm Calm - N/A   Overcast
3:28 PM 45.0°F 39.0°F 80% 30.12 in 10.0 miles Calm Calm - N/A   Overcast
3:38 PM 45.0°F 39.0°F 80% 30.12 in 10.0 miles Calm Calm - N/A   Overcast
3:53 PM 44.6°F 39.2°F 81% 30.11 in 10.0 miles SE 5.8 mph - N/A   Mostly Cloudy
4:01 PM 43.0°F 39.0°F 86% 30.12 in 10.0 miles SE 4.6 mph - N/A   Mostly Cloudy
4:45 PM 42.1°F 39.0°F 89% 30.12 in 10.0 miles SE 4.6 mph - N/A   Overcast
4:53 PM 42.1°F 39.0°F 89% 30.13 in 10.0 miles SE 3.5 mph - N/A   Overcast
5:20 PM 42.1°F 39.0°F 89% 30.12 in 10.0 miles SE 3.5 mph - N/A   Overcast
5:53 PM 42.1°F 39.0°F 89% 30.13 in 10.0 miles SSW 3.5 mph - N/A   Mostly Cloudy
6:19 PM 39.0°F 37.9°F 96% 30.12 in 10.0 miles Calm Calm - N/A   Mostly Cloudy
6:35 PM 39.9°F 37.0°F 89% 30.13 in 10.0 miles SW 4.6 mph - N/A   Mostly Cloudy
6:53 PM 39.0°F 37.0°F 93% 30.13 in 10.0 miles SW 6.9 mph - N/A   Scattered Clouds
7:53 PM 37.9°F 36.0°F 93% 30.12 in 10.0 miles SW 3.5 mph - N/A   Overcast
8:53 PM 37.9°F 36.0°F 93% 30.12 in 10.0 miles Calm Calm - N/A   Overcast
9:53 PM 39.0°F 36.0°F 89% 30.12 in 10.0 miles WSW 4.6 mph - N/A   Overcast
10:53 PM 37.9°F 36.0°F 93% 30.13 in 10.0 miles Calm Calm - N/A   Overcast
11:53 PM 37.9°F 36.0°F 93% 30.13 in 10.0 miles Calm Calm - N/A   Overcast
Moon Phase
Dec. 27 Dec. 28 Jan. 04 Jan. 11 Jan. 18
Sunrise:08:03 AM (PST) Moon Rise:04:18 PM (PST)
Sunset:04:27 PM (PST) Moon Set:07:16 AM (PST)

Copyright © 2014 The Weather Underground, Inc.